Home > Weather > Råholt > Past weeks

Flag for Norway Past Weather in Råholt, Norway — Yesterday and Last 2 Weeks

Now
54 °F

Light rain. Broken clouds.


Feels Like: 52 °F
Forecast: 52 / 70 °F
Wind: 7 mph from Northeast

Location: Oslo Gardermoen Airport

Current Time: May 29, 2016 at 3:34:06 PM

Latest Report: May 29, 2016 at 2:50 PM


Visibility: 5 mi

Pressure: 30.15 "Hg

Humidity: 94%

Dew Point: 52 °F

Location of RåholtLocation

Past Weather in Råholt — Graph

°F

Råholt Temperature Yesterday

Maximum temperature yesterday: 59 °F (at 4:20 PM)
Minimum temperature yesterday: 48 °F (at 6:50 AM)
Average temperature yesterday: 53 °F

High & Low Weather Summary for the Past Weeks

 TemperatureHumidityPressure
High66 °F (May 27, 3:20 PM)100% (May 22, 4:50 AM)30.18 "Hg (May 22, 4:50 AM)
Low34 °F (May 17, 3:20 AM)20% (May 16, 7:50 PM)29.62 "Hg (May 17, 3:50 PM)
Average52 °F64%29.89 "Hg
* Reported May 14 2:20 PM — May 29 2:20 PM, Råholt, Weather by CustomWeather, © 2016

Note: Actual official high and low records may vary slightly from our data, if they occured in-between our weather recording intervals... More about our weather records

Advertising

Råholt Weather History for the Previous 24 Hours

Scroll right to see more
 ConditionsComfort  
Time TempWeatherWind HumidityBarometerVisibility
2:20 PM
Sun, May 29
54 °FLight rain. Partly sunny.7 mph94%30.15 "Hg6 mi
1:50 PM54 °FLight rain. Broken clouds.7 mph94%30.15 "HgN/A
1:20 PM54 °FRain. Broken clouds.8 mph94%30.15 "Hg5 mi
12:50 PM54 °FLight rain. Partly sunny.8 mph88%30.15 "HgN/A
12:20 PM54 °FLight rain. Overcast.9 mph88%30.15 "HgN/A
11:50 AM54 °FOvercast.8 mph88%30.15 "HgN/A
11:20 AM54 °FPartly sunny.9 mph88%30.15 "HgN/A
10:50 AM54 °FPartly sunny.9 mph88%30.15 "HgN/A
10:20 AM54 °FMore clouds than sun.8 mph88%30.15 "HgN/A
9:50 AM54 °FLight rain. Partly sunny.7 mph88%30.18 "HgN/A
9:20 AM52 °FLight rain. Partly sunny.8 mph94%30.18 "HgN/A
8:50 AM52 °FMore clouds than sun.7 mph94%30.18 "HgN/A
8:20 AM52 °FLight rain. Overcast.7 mph94%30.18 "HgN/A
7:50 AM52 °FOvercast.8 mph88%30.18 "HgN/A
7:20 AM52 °FBroken clouds.7 mph94%30.18 "HgN/A
6:50 AM52 °FSprinkles. Partly sunny.7 mph94%30.18 "HgN/A
6:20 AM52 °FScattered showers. Broken clouds.7 mph94%30.18 "HgN/A
5:50 AM52 °FSprinkles. Broken clouds.7 mph94%30.18 "HgN/A
5:20 AM52 °FScattered showers. Partly sunny.6 mph94%30.18 "HgN/A
4:50 AM52 °FScattered showers. Passing clouds.7 mph88%30.18 "HgN/A
4:20 AM52 °FSprinkles. Passing clouds.6 mph82%30.18 "HgN/A
3:50 AM52 °FScattered showers. Passing clouds.6 mph77%30.18 "HgN/A
3:20 AM52 °FPassing clouds.5 mph77%30.18 "HgN/A
2:50 AM52 °FPassing clouds.2 mph77%30.18 "HgN/A
2:20 AM52 °FClear.3 mph72%30.18 "Hg10 mi
1:50 AM54 °FClear.6 mph67%30.18 "Hg10 mi
1:20 AM54 °FPassing clouds.6 mph67%30.18 "HgN/A
12:50 AM54 °FPassing clouds.6 mph67%30.18 "HgN/A
12:20 AM54 °FPassing clouds.7 mph67%30.18 "HgN/A
11:50 PM
Sat, May 28
54 °FPartly cloudy.6 mph72%30.18 "HgN/A
11:20 PM54 °FPassing clouds.5 mph72%30.18 "HgN/A
10:50 PM55 °FSunny.3 mph63%30.18 "Hg10 mi
10:20 PM55 °FPartly sunny.3 mph63%30.18 "HgN/A
9:50 PM57 °FBroken clouds.3 mph55%30.18 "HgN/A
9:20 PM57 °FSunny.2 mph55%30.18 "Hg10 mi
8:50 PM57 °FSunny.2 mph51%30.18 "Hg10 mi
8:20 PM59 °FPassing clouds.7 mph48%30.18 "HgN/A
7:50 PM59 °FPartly sunny.6 mph45%30.18 "HgN/A
6:50 PM57 °FPassing clouds.3 mph51%30.18 "HgN/A
6:20 PM57 °FSunny.5 mph55%30.18 "Hg10 mi
5:50 PM57 °FPartly sunny.8 mph55%30.18 "HgN/A
5:20 PM57 °FBroken clouds.3 mph59%30.18 "HgN/A
4:50 PM57 °FBroken clouds.3 mph63%30.18 "HgN/A
4:20 PM59 °FBroken clouds.2 mph55%30.18 "HgN/A
3:50 PM57 °FScattered clouds.3 mph67%30.18 "HgN/A
3:20 PM55 °FScattered showers. Clear.5 mph67%30.18 "HgN/A
Weather by CustomWeather, © 2016

See weather overviewHow to use our weather pages